IRIDIUM 34 [-]

Last updated on Jan. 9, 2018, 12:19 a.m. UTC

1 24969U 97056E   18008.02445641  .28118293 -13397-5  35827-3 0  9991
2 24969  86.3612 230.1096 0037510  75.0937 285.7049 16.45697571 62280

Satellite is not in orbit.